GFSNIL_prec_pwat_126.txt.gz
Precipitable_Water
0.60 0.63 0.70 0.72 0.73 0.77 0.79 0.77 0.73 0.61 0.58 0.54 0.56 0.59 0.61 0.61 0.62 0.63 0.62 0.60 0.68 0.70
0.61 0.63 0.63 0.62 0.60 0.60 0.74 0.75 0.62 0.56 0.57 0.58 0.56 0.56 0.57 0.59 0.60 0.62 0.63 0.63 0.61 0.68
0.55 0.60 0.62 0.63 0.59 0.60 0.61 0.63 0.61 0.62 0.59 0.54 0.53 0.52 0.54 0.56 0.59 0.60 0.62 0.62 0.61 0.63
0.52 0.50 0.53 0.59 0.62 0.62 0.62 0.63 0.63 0.61 0.59 0.57 0.54 0.55 0.54 0.53 0.56 0.59 0.60 0.62 0.62 0.61
0.52 0.55 0.53 0.55 0.58 0.59 0.58 0.62 0.62 0.59 0.57 0.55 0.54 0.54 0.53 0.53 0.53 0.55 0.58 0.60 0.62 0.62
0.47 0.49 0.55 0.56 0.57 0.58 0.59 0.59 0.57 0.56 0.55 0.54 0.54 0.54 0.54 0.54 0.54 0.55 0.57 0.61 0.62 0.65
0.44 0.44 0.43 0.47 0.50 0.52 0.52 0.51 0.52 0.52 0.51 0.51 0.52 0.52 0.53 0.54 0.55 0.55 0.56 0.58 0.60 0.62
0.43 0.42 0.41 0.41 0.41 0.41 0.41 0.39 0.40 0.40 0.42 0.43 0.42 0.46 0.49 0.51 0.52 0.53 0.54 0.56 0.58 0.59
0.39 0.37 0.36 0.35 0.33 0.31 0.30 0.29 0.28 0.27 0.27 0.26 0.25 0.27 0.31 0.39 0.44 0.49 0.50 0.52 0.54 0.56
0.33 0.32 0.30 0.28 0.26 0.25 0.23 0.23 0.22 0.22 0.22 0.21 0.21 0.21 0.22 0.24 0.27 0.28 0.34 0.41 0.48 0.51
0.29 0.26 0.24 0.24 0.22 0.21 0.21 0.19 0.18 0.18 0.18 0.18 0.18 0.18 0.17 0.20 0.21 0.22 0.22 0.23 0.26 0.32
0.22 0.23 0.22 0.20 0.19 0.19 0.20 0.19 0.18 0.18 0.17 0.17 0.16 0.15 0.14 0.16 0.17 0.18 0.18 0.19 0.19 0.19
0.21 0.19 0.18 0.20 0.20 0.19 0.19 0.18 0.17 0.16 0.16 0.16 0.15 0.15 0.14 0.14 0.15 0.15 0.15 0.16 0.17 0.15
0.20 0.22 0.22 0.19 0.18 0.18 0.17 0.17 0.16 0.16 0.16 0.16 0.15 0.15 0.13 0.12 0.11 0.12 0.12 0.12 0.12 0.13

GFSNIL_prec_pwat_129.txt.gz
Precipitable_Water
0.52 0.56 0.56 0.57 0.59 0.61 0.63 0.65 0.71 0.77 0.82 0.82 0.81 0.76 0.69 0.60 0.59 0.60 0.59 0.61 0.64 0.64
0.43 0.48 0.50 0.55 0.62 0.66 0.66 0.62 0.65 0.69 0.77 0.81 0.73 0.65 0.60 0.60 0.57 0.55 0.56 0.57 0.61 0.62
0.43 0.45 0.49 0.54 0.52 0.56 0.65 0.65 0.65 0.65 0.69 0.68 0.63 0.61 0.61 0.55 0.56 0.52 0.52 0.54 0.56 0.59
0.45 0.46 0.47 0.50 0.56 0.57 0.59 0.63 0.64 0.66 0.67 0.67 0.64 0.64 0.59 0.57 0.55 0.53 0.53 0.53 0.55 0.57
0.47 0.47 0.47 0.49 0.53 0.60 0.60 0.60 0.61 0.61 0.61 0.63 0.63 0.63 0.61 0.58 0.55 0.53 0.53 0.54 0.54 0.56
0.44 0.43 0.43 0.45 0.47 0.51 0.58 0.60 0.61 0.60 0.57 0.57 0.57 0.57 0.58 0.56 0.55 0.55 0.55 0.56 0.56 0.56
0.42 0.42 0.41 0.42 0.43 0.44 0.46 0.49 0.51 0.50 0.47 0.44 0.45 0.48 0.51 0.52 0.53 0.53 0.54 0.55 0.55 0.55
0.41 0.40 0.40 0.38 0.38 0.37 0.35 0.35 0.35 0.35 0.34 0.31 0.27 0.29 0.31 0.35 0.37 0.41 0.46 0.49 0.51 0.53
0.38 0.36 0.34 0.32 0.32 0.31 0.31 0.29 0.29 0.28 0.26 0.23 0.21 0.23 0.25 0.26 0.25 0.24 0.24 0.25 0.31 0.39
0.34 0.30 0.29 0.29 0.27 0.27 0.26 0.25 0.24 0.24 0.23 0.20 0.18 0.18 0.21 0.23 0.22 0.21 0.20 0.19 0.18 0.19
0.30 0.28 0.27 0.27 0.24 0.24 0.24 0.22 0.21 0.20 0.19 0.19 0.17 0.16 0.18 0.22 0.21 0.20 0.19 0.18 0.16 0.16
0.22 0.25 0.25 0.23 0.22 0.22 0.22 0.22 0.22 0.21 0.19 0.18 0.17 0.17 0.15 0.17 0.19 0.17 0.18 0.18 0.17 0.14
0.22 0.21 0.20 0.21 0.22 0.22 0.22 0.21 0.21 0.20 0.19 0.18 0.16 0.16 0.15 0.15 0.16 0.15 0.14 0.15 0.14 0.12
0.23 0.23 0.26 0.22 0.21 0.21 0.20 0.21 0.20 0.20 0.19 0.17 0.17 0.15 0.14 0.13 0.13 0.14 0.13 0.12 0.12 0.12

GFSNIL_prec_pwat_132.txt.gz
Precipitable_Water
0.41 0.41 0.41 0.41 0.43 0.45 0.48 0.53 0.61 0.62 0.63 0.63 0.67 0.71 0.76 0.77 0.75 0.75 0.71 0.71 0.65 0.59
0.43 0.42 0.42 0.43 0.43 0.44 0.48 0.50 0.52 0.64 0.67 0.66 0.67 0.70 0.74 0.74 0.72 0.75 0.72 0.64 0.60 0.56
0.44 0.45 0.45 0.46 0.45 0.45 0.47 0.50 0.55 0.56 0.64 0.65 0.68 0.72 0.71 0.68 0.65 0.64 0.63 0.60 0.55 0.53
0.45 0.45 0.46 0.47 0.48 0.49 0.50 0.51 0.55 0.60 0.63 0.64 0.66 0.69 0.69 0.65 0.62 0.61 0.59 0.58 0.55 0.52
0.45 0.44 0.44 0.44 0.45 0.47 0.49 0.52 0.54 0.56 0.60 0.59 0.62 0.64 0.65 0.63 0.63 0.61 0.59 0.58 0.54 0.53
0.42 0.41 0.41 0.42 0.43 0.43 0.44 0.47 0.51 0.51 0.49 0.50 0.52 0.55 0.57 0.57 0.59 0.60 0.58 0.55 0.53 0.53
0.42 0.41 0.41 0.41 0.40 0.38 0.37 0.37 0.41 0.39 0.36 0.34 0.34 0.36 0.37 0.38 0.40 0.41 0.44 0.46 0.47 0.49
0.41 0.40 0.39 0.37 0.35 0.34 0.32 0.30 0.31 0.29 0.25 0.24 0.24 0.29 0.31 0.31 0.28 0.26 0.24 0.26 0.29 0.29
0.38 0.37 0.35 0.33 0.32 0.30 0.30 0.27 0.25 0.26 0.22 0.19 0.20 0.24 0.27 0.27 0.26 0.23 0.20 0.17 0.19 0.18
0.34 0.31 0.28 0.30 0.28 0.26 0.25 0.23 0.21 0.22 0.22 0.18 0.19 0.21 0.24 0.25 0.24 0.22 0.20 0.16 0.15 0.15
0.30 0.30 0.28 0.26 0.26 0.25 0.23 0.21 0.20 0.19 0.19 0.18 0.18 0.17 0.20 0.22 0.21 0.21 0.19 0.17 0.14 0.14
0.24 0.23 0.24 0.23 0.23 0.23 0.21 0.22 0.21 0.21 0.20 0.17 0.17 0.17 0.16 0.18 0.19 0.17 0.17 0.16 0.15 0.14
0.22 0.21 0.21 0.23 0.23 0.24 0.24 0.22 0.22 0.20 0.19 0.18 0.15 0.17 0.16 0.15 0.16 0.15 0.14 0.14 0.14 0.14
0.23 0.25 0.25 0.23 0.22 0.21 0.22 0.22 0.22 0.22 0.19 0.17 0.16 0.15 0.16 0.15 0.14 0.15 0.14 0.13 0.13 0.14

GFSNIL_prec_pwat_135.txt.gz
Precipitable_Water
0.40 0.41 0.41 0.41 0.41 0.41 0.40 0.40 0.42 0.44 0.47 0.48 0.56 0.60 0.62 0.63 0.67 0.69 0.73 0.71 0.72 0.70
0.42 0.42 0.42 0.43 0.45 0.44 0.45 0.44 0.44 0.45 0.45 0.49 0.53 0.59 0.64 0.65 0.68 0.68 0.68 0.68 0.69 0.70
0.44 0.44 0.44 0.45 0.45 0.46 0.46 0.47 0.47 0.47 0.47 0.51 0.56 0.59 0.61 0.66 0.69 0.68 0.67 0.65 0.63 0.64
0.44 0.45 0.44 0.43 0.44 0.46 0.46 0.47 0.47 0.48 0.47 0.50 0.54 0.59 0.63 0.65 0.66 0.66 0.67 0.64 0.62 0.61
0.44 0.44 0.42 0.42 0.41 0.42 0.42 0.45 0.44 0.45 0.43 0.47 0.52 0.55 0.60 0.61 0.62 0.61 0.61 0.59 0.57 0.58
0.43 0.42 0.41 0.41 0.41 0.40 0.39 0.39 0.40 0.41 0.36 0.38 0.41 0.41 0.43 0.43 0.45 0.45 0.50 0.52 0.49 0.53
0.43 0.42 0.41 0.40 0.37 0.35 0.33 0.32 0.29 0.30 0.26 0.24 0.27 0.31 0.33 0.31 0.30 0.25 0.28 0.30 0.30 0.32
0.43 0.42 0.39 0.37 0.34 0.31 0.29 0.31 0.29 0.24 0.21 0.21 0.23 0.25 0.26 0.27 0.26 0.21 0.19 0.21 0.21 0.22
0.40 0.36 0.35 0.32 0.30 0.27 0.26 0.27 0.27 0.21 0.18 0.18 0.21 0.24 0.24 0.23 0.21 0.20 0.18 0.17 0.19 0.19
0.35 0.32 0.29 0.27 0.27 0.25 0.23 0.21 0.20 0.19 0.18 0.17 0.18 0.23 0.22 0.22 0.20 0.18 0.18 0.18 0.17 0.17
0.33 0.28 0.28 0.27 0.26 0.24 0.23 0.21 0.19 0.16 0.16 0.17 0.17 0.19 0.20 0.20 0.19 0.16 0.15 0.16 0.16 0.15
0.28 0.22 0.23 0.22 0.22 0.25 0.22 0.20 0.19 0.18 0.17 0.17 0.17 0.17 0.17 0.17 0.17 0.15 0.15 0.16 0.17 0.16
0.25 0.21 0.20 0.21 0.24 0.24 0.26 0.23 0.21 0.18 0.16 0.15 0.16 0.18 0.17 0.15 0.15 0.14 0.14 0.14 0.15 0.16
0.22 0.22 0.24 0.23 0.23 0.22 0.23 0.22 0.20 0.18 0.16 0.15 0.16 0.16 0.17 0.16 0.15 0.14 0.14 0.13 0.13 0.15

GFSNIL_prec_pwat_141.txt.gz
Precipitable_Water
0.47 0.45 0.45 0.44 0.44 0.43 0.43 0.43 0.42 0.44 0.45 0.46 0.48 0.48 0.48 0.49 0.49 0.48 0.46 0.46 0.48 0.51
0.48 0.47 0.46 0.47 0.46 0.46 0.46 0.43 0.42 0.44 0.44 0.45 0.47 0.48 0.48 0.49 0.51 0.49 0.48 0.48 0.49 0.52
0.49 0.49 0.48 0.47 0.45 0.44 0.42 0.40 0.39 0.40 0.42 0.43 0.45 0.45 0.45 0.46 0.50 0.48 0.49 0.50 0.50 0.51
0.48 0.48 0.48 0.46 0.43 0.41 0.40 0.37 0.34 0.35 0.37 0.39 0.39 0.39 0.38 0.37 0.37 0.36 0.36 0.44 0.48 0.52
0.50 0.48 0.47 0.44 0.42 0.40 0.37 0.32 0.28 0.28 0.29 0.30 0.32 0.30 0.28 0.28 0.27 0.24 0.20 0.24 0.29 0.33
0.50 0.50 0.46 0.43 0.41 0.38 0.33 0.28 0.25 0.26 0.27 0.28 0.28 0.24 0.22 0.21 0.20 0.21 0.20 0.21 0.24 0.24
0.50 0.47 0.44 0.41 0.39 0.34 0.29 0.25 0.24 0.25 0.28 0.28 0.25 0.22 0.19 0.17 0.15 0.17 0.21 0.23 0.23 0.23
0.49 0.46 0.42 0.39 0.35 0.30 0.26 0.23 0.24 0.24 0.25 0.27 0.24 0.22 0.19 0.17 0.15 0.15 0.16 0.19 0.21 0.20
0.47 0.44 0.40 0.35 0.29 0.25 0.23 0.22 0.22 0.22 0.22 0.24 0.23 0.21 0.19 0.17 0.15 0.15 0.15 0.16 0.17 0.17
0.47 0.42 0.37 0.30 0.25 0.22 0.21 0.20 0.19 0.20 0.22 0.22 0.20 0.18 0.17 0.17 0.16 0.15 0.15 0.16 0.16 0.15
0.45 0.39 0.33 0.26 0.22 0.20 0.19 0.19 0.18 0.18 0.18 0.18 0.20 0.19 0.18 0.18 0.18 0.18 0.17 0.17 0.17 0.16
0.43 0.35 0.29 0.24 0.20 0.19 0.18 0.18 0.17 0.18 0.18 0.19 0.18 0.19 0.17 0.17 0.16 0.15 0.16 0.17 0.18 0.16
0.39 0.33 0.26 0.22 0.20 0.19 0.20 0.21 0.19 0.18 0.18 0.19 0.18 0.19 0.18 0.16 0.15 0.14 0.13 0.14 0.15 0.17
0.37 0.32 0.27 0.24 0.22 0.20 0.21 0.20 0.17 0.16 0.16 0.18 0.19 0.20 0.19 0.17 0.15 0.14 0.13 0.13 0.12 0.13